Location: Wiesbaden
(50.0830°N, 8.2500°E)
Time: 07:22:33
(UTC+01:00)

ISS - Pass Details

Date: 14 December 2018
Orbit: 401 x 408 km, 51.6° (Epoch: 12 December)

Event Time Altitude Azimuth Distance (km) Brightness Sun altitude
Rises 17:11:19 0° 285° (WNW) 2,321 0.8 -7.1°
Reaches altitude 10° 17:13:40 10° 270° (W) 1,457 0.1 -7.5°
Maximum altitude 17:16:17 22° 217° (SW) 927 -1.1 -7.8°
Drops below altitude 10° 17:18:53 10° 163° (SSE) 1,449 -0.9 -8.2°
Sets 17:21:13 0° 148° (SSE) 2,303 -0.1 -8.5°
